K9APR Weather Reports


Display with metric or nautical units.
time (UTC)temp
F
wind
direction
speed
MPH
gust
MPH
rain 1hr
in
rain 24hr
in
rain mn
in
humidity
%
barometer
mb
20260510004550 65 244 1.0 3.0 0.00 0.88 0.46 68 1008.3
20260510003648 66 294 1.0 1.0 0.00 0.89 0.46 68 1008.1
20260510002749 67 279 1.0 2.0 0.00 0.89 0.46 65 1008.0
20260510001849 68 284 2.0 3.0 0.00 0.90 0.46 62 1007.8
20260510000948 69 273 2.0 3.0 0.00 0.91 0.46 60 1007.7
20260510000048 70 265 2.0 5.0 0.00 0.91 0.46 58 1007.6
20260509235150 70 274 5.0 8.0 0.00 0.92 0.46 57 1007.5
20260509234251 69 277 3.0 5.0 0.00 0.92 0.46 58 1007.5
20260509233349 70 277 3.0 3.0 0.00 0.93 0.46 55 1007.4
20260509232450 70 268 3.0 6.0 0.00 0.95 0.46 54 1007.2
20260509231558 70 257 6.0 10.0 0.00 0.95 0.46 55 1007.2
20260509231550 70 257 6.0 10.0 0.00 0.95 0.46 55 1007.2
20260509230649 71 281 5.0 8.0 0.00 0.96 0.46 53 1007.1
20260509225749 71 254 7.0 15.0 0.00 0.96 0.46 53 1007.1
20260509224849 71 259 5.0 8.0 0.00 0.96 0.46 55 1007.0
20260509223949 72 262 5.0 3.0 0.00 0.96 0.46 53 1007.0
20260509223048 72 268 5.0 6.0 0.00 0.96 0.46 52 1006.9
20260509222150 73 279 5.0 8.0 0.00 0.96 0.46 53 1006.9
20260509221249 73 278 3.0 12.0 0.00 0.96 0.46 56 1006.9
20260509220348 73 265 5.0 9.0 0.00 0.96 0.46 59 1006.9
20260509215450 72 246 5.0 13.0 0.00 0.96 0.46 59 1006.9
20260509214549 72 272 5.0 10.0 0.00 0.96 0.46 57 1006.8
20260509213649 72 251 7.0 14.0 0.00 0.96 0.46 57 1006.8
20260509212749 72 260 8.0 13.0 0.00 0.96 0.46 57 1006.8
20260509211849 72 252 7.0 17.0 0.00 0.96 0.46 58 1006.9
20260509210949 73 251 7.0 14.0 0.00 0.96 0.46 56 1007.0
20260509210049 73 266 5.0 9.0 0.00 0.96 0.46 61 1006.9
20260509205148 72 273 5.0 8.0 0.00 0.96 0.46 59 1007.0
20260509204724 72 249 7.0 9.0 0.00 0.96 0.46 57 1007.0
20260509203825 72 260 3.0 7.0 0.00 0.96 0.46 63 1007.1
20260509202924 72 238 9.0 14.0 0.00 0.96 0.46 62 1007.3
20260509202024 72 239 8.0 12.0 0.00 0.96 0.46 62 1007.4
20260509201126 71 264 5.0 7.0 0.00 0.96 0.46 63 1007.5
20260509200225 71 238 3.0 10.0 0.00 0.96 0.46 64 1007.6
20260509195325 71 266 5.0 9.0 0.00 0.96 0.46 65 1007.7
20260509194426 71 223 6.0 12.0 0.00 0.96 0.46 66 1007.8
20260509193524 71 266 3.0 7.0 0.00 0.96 0.46 67 1007.7
20260509192624 70 263 6.0 8.0 0.00 0.96 0.46 66 1007.8
20260509191726 70 228 7.0 20.0 0.00 0.96 0.46 68 1007.8
20260509190825 69 253 8.0 8.0 0.00 0.96 0.46 68 1007.8
20260509185925 69 206 8.0 12.0 0.00 0.96 0.46 67 1007.9
20260509185024 69 239 7.0 12.0 0.00 0.96 0.46 68 1008.0
20260509184127 69 264 5.0 8.0 0.00 0.96 0.46 68 1008.0
20260509183224 68 244 6.0 13.0 0.00 0.96 0.46 70 1007.9
20260509182325 68 259 7.0 13.0 0.00 0.96 0.46 70 1008.0
20260509181424 68 225 8.0 13.0 0.00 0.96 0.46 69 1008.0
20260509180525 68 239 8.0 12.0 0.00 0.96 0.46 69 1008.0
20260509175749 67 188 8.0 12.0 0.00 0.96 0.46 69 1008.0
20260509175624 67 188 8.0 12.0 0.00 0.96 0.46 69 1008.0
20260509174724 67 243 8.0 12.0 0.00 0.96 0.46 69 1008.0
20260509173826 67 247 5.0 12.0 0.00 0.96 0.46 71 1008.3
20260509172924 67 205 7.0 16.0 0.00 0.96 0.46 70 1008.4
20260509172024 67 205 7.0 12.0 0.00 0.96 0.46 71 1008.5
20260509171125 66 257 7.0 12.0 0.00 0.96 0.46 73 1008.4
20260509170225 66 245 6.0 13.0 0.00 0.96 0.46 72 1008.4
20260509164501 66 234 5.0 10.0 0.00 0.96 0.46 75 1008.4
20260509164426 66 234 5.0 10.0 0.00 0.96 0.46 75 1008.4
20260509163526 66 253 7.0 12.0 0.00 0.96 0.46 71 1008.5
20260509162624 65 245 8.0 10.0 0.00 0.96 0.46 72 1008.5
20260509161724 65 207 7.0 12.0 0.00 0.96 0.46 70 1008.3
20260509160825 65 205 6.0 10.0 0.00 0.96 0.46 72 1008.3
20260509155927 64 252 5.0 9.0 0.00 0.96 0.46 72 1008.3
20260509155025 64 217 7.0 10.0 0.00 0.96 0.46 73 1008.3
20260509154126 63 271 6.0 3.0 0.00 0.96 0.46 75 1008.4
20260509153225 63 250 6.0 12.0 0.00 0.96 0.46 75 1008.4
20260509152324 63 217 3.0 7.0 0.00 0.96 0.46 77 1008.4
20260509151425 63 250 3.0 8.0 0.00 0.96 0.46 78 1008.5
20260509150525 62 223 5.0 7.0 0.00 0.96 0.46 78 1008.4
20260509145624 62 233 5.0 7.0 0.00 0.96 0.46 78 1008.4
20260509144726 62 277 3.0 5.0 0.00 0.96 0.46 81 1008.2
20260509143856 61 215 5.0 5.0 0.00 0.96 0.46 82 1008.3
20260509143825 61 215 5.0 5.0 0.00 0.96 0.46 82 1008.3
20260509142925 60 238 5.0 7.0 0.00 0.96 0.46 82 1008.2
20260509141125 58 186 5.0 6.0 0.00 0.96 0.46 84 1008.1
20260509140226 58 234 3.0 8.0 0.00 0.96 0.46 86 1008.0
20260509135324 58 245 1.0 3.0 0.00 0.96 0.46 87 1008.0
20260509134456 57 218 2.0 6.0 0.00 0.96 0.46 87 1008.0
20260509134425 57 218 2.0 6.0 0.00 0.96 0.46 87 1008.0
20260509133555 57 180 5.0 6.0 0.00 0.96 0.46 88 1008.0
20260509133524 57 180 5.0 6.0 0.00 0.96 0.46 88 1008.0
20260509132624 56 218 1.0 3.0 0.00 0.96 0.46 91 1008.1
20260509131757 55 206 2.0 5.0 0.00 0.96 0.46 90 1008.2
20260509131724 55 206 2.0 5.0 0.00 0.96 0.46 90 1008.2
20260509130824 55 234 2.0 3.0 0.00 0.96 0.46 91 1008.3
20260509125925 54 230 3.0 5.0 0.00 0.96 0.46 91 1008.2
20260509124125 54 258 3.0 7.0 0.00 0.96 0.46 91 1008.4
20260509123225 54 234 5.0 6.0 0.00 0.96 0.46 91 1008.3
20260509122325 54 229 3.0 6.0 0.00 0.96 0.46 91 1008.4
20260509121425 53 237 3.0 7.0 0.00 0.96 0.46 92 1008.3
20260509115625 53 258 1.0 2.0 0.00 0.96 0.46 92 1008.3
20260509114756 53 233 0.0 2.0 0.00 0.96 0.46 92 1008.1
20260509114725 53 233 0.0 2.0 0.00 0.96 0.46 92 1008.1
20260509113855 52 155 0.0 1.0 0.00 0.96 0.46 92 1007.9
20260509113824 52 155 0.0 1.0 0.00 0.96 0.46 92 1007.9
20260509112925 52 290 0.0 0.0 0.00 0.96 0.46 91 1008.1
20260509112119 52 278 1.0 1.0 0.00 0.96 0.46 91 1008.2
20260509112026 52 278 1.0 1.0 0.00 0.96 0.46 91 1008.2
20260509111157 53 233 0.0 1.0 0.00 0.96 0.46 91 1008.1
20260509111124 53 233 0.0 1.0 0.00 0.96 0.46 91 1008.1
20260509110225 53 200 1.0 2.0 0.00 0.96 0.46 91 1008.0
20260509105324 53 231 0.0 0.0 0.01 0.96 0.46 91 1007.9
20260509104456 53 266 0.0 1.0 0.01 0.96 0.46 91 1008.1
20260509104424 53 266 0.0 1.0 0.01 0.96 0.46 91 1008.1
20260509103602 53 286 1.0 1.0 0.02 0.96 0.46 91 1008.1
20260509103527 53 286 1.0 1.0 0.02 0.96 0.46 91 1008.1
20260509102627 53 246 1.0 2.0 0.02 0.96 0.46 91 1007.9
20260509101724 53 292 3.0 6.0 0.02 0.96 0.46 91 1008.0
20260509100824 53 304 3.0 5.0 0.02 0.96 0.46 90 1007.9
20260509095925 53 143 10.0 14.0 0.02 0.96 0.46 91 1007.0
20260509095024 53 231 2.0 5.0 0.01 0.95 0.45 91 1008.0
20260509094124 53 205 2.0 5.0 0.00 0.94 0.44 91 1008.2
20260509093225 53 194 3.0 6.0 0.00 0.94 0.44 91 1008.1
20260509092324 53 223 2.0 5.0 0.00 0.94 0.44 90 1008.1
20260509091424 53 235 2.0 3.0 0.01 0.94 0.44 90 1008.1
20260509090524 53 193 2.0 3.0 0.01 0.94 0.44 90 1007.9
20260509084723 53 219 1.0 3.0 0.01 0.94 0.44 90 1008.2
20260509083824 53 224 1.0 3.0 0.01 0.94 0.44 90 1008.1
20260509082924 53 236 2.0 6.0 0.02 0.94 0.44 90 1008.1
20260509082055 53 177 2.0 6.0 0.03 0.93 0.43 90 1008.2
20260509082023 53 177 2.0 6.0 0.03 0.93 0.43 90 1008.2
20260509081125 53 220 5.0 6.0 0.03 0.93 0.43 90 1008.2
20260509080224 53 166 3.0 5.0 0.04 0.93 0.43 90 1008.1
20260509075323 54 245 3.0 5.0 0.05 0.93 0.43 90 1008.3
20260509074424 54 224 3.0 6.0 0.05 0.93 0.43 90 1008.4
20260509073524 54 248 2.0 6.0 0.04 0.92 0.42 90 1008.8
20260509072625 54 267 1.0 3.0 0.05 0.92 0.42 90 1008.8
20260509071726 54 261 3.0 5.0 0.05 0.90 0.40 90 1008.9
20260509070824 54 270 1.0 3.0 0.07 0.90 0.40 90 1009.0
20260509065925 54 252 5.0 13.0 0.09 0.89 0.39 91 1009.0
20260509065025 54 265 5.0 6.0 0.09 0.88 0.38 91 1008.9
20260509064124 54 249 5.0 10.0 0.11 0.88 0.38 91 1009.2
20260509063224 54 250 3.0 7.0 0.13 0.87 0.37 91 1009.3
20260509062748 54 207 5.0 8.0 0.16 0.86 0.36 91 1009.4
20260509062325 54 207 5.0 8.0 0.16 0.86 0.36 91 1009.4
20260509061425 54 238 2.0 3.0 0.18 0.85 0.35 90 1009.4
20260509060524 54 195 3.0 5.0 0.19 0.83 0.33 90 1009.6
20260509055624 54 208 2.0 2.0 0.17 0.80 0.30 90 1009.5
20260509054726 54 243 3.0 3.0 0.17 0.78 0.28 90 1009.7
20260509053824 54 184 3.0 6.0 0.19 0.77 0.27 90 1009.7
20260509052925 54 216 3.0 12.0 0.16 0.72 0.22 90 1009.8
20260509052023 54 205 2.0 3.0 0.16 0.70 0.20 90 1009.7
20260509051126 54 129 2.0 5.0 0.13 0.66 0.16 90 1009.7
20260509050225 54 169 2.0 5.0 0.13 0.64 0.14 89 1009.8
20260509045323 54 194 3.0 5.0 0.00 0.63 0.13 89 1009.7
20260509044423 54 205 3.0 7.0 0.00 0.60 0.10 89 1009.9
20260509043524 54 198 3.0 7.0 0.00 0.58 0.08 89 1010.1
20260509042624 54 208 2.0 5.0 0.00 0.56 0.06 90 1010.2
20260509041725 54 246 2.0 5.0 0.00 0.54 0.04 90 1010.3
20260509035924 54 263 2.0 3.0 0.00 0.50 0.00 90 1010.5
20260509035024 54 255 3.0 6.0 0.16 0.48 0.48 90 1010.4
20260509034125 54 245 2.0 3.0 0.16 0.46 0.46 89 1010.3
20260509033223 55 271 2.0 8.0 0.13 0.42 0.42 89 1010.7
20260509032324 55 218 7.0 10.0 0.13 0.40 0.40 89 1010.4
20260509031425 55 222 3.0 7.0 0.14 0.37 0.37 89 1010.5
20260509030525 55 257 3.0 7.0 0.14 0.35 0.35 90 1010.8
20260509025624 55 246 5.0 8.0 0.15 0.33 0.33 90 1010.7
20260509024724 55 231 2.0 5.0 0.14 0.31 0.31 90 1010.7
20260509022924 54 217 5.0 8.0 0.14 0.28 0.28 90 1010.9
20260509021125 54 210 5.0 8.0 0.10 0.22 0.22 90 1010.8
20260509020224 54 208 2.0 3.0 0.09 0.20 0.20 90 1010.7
20260509015325 54 194 2.0 2.0 0.08 0.18 0.18 90 1010.6
20260509014425 54 281 1.0 1.0 0.08 0.16 0.16 89 1010.7
20260509013525 54 230 2.0 5.0 0.08 0.15 0.15 89 1010.4
20260509012625 54 202 3.0 5.0 0.07 0.14 0.14 89 1010.3
20260509011723 54 222 1.0 2.0 0.07 0.13 0.13 89 1010.5
20260509005924 54 286 1.0 1.0 0.06 0.11 0.11 89 1010.4
20260509005024 54 226 0.0 2.0 0.04 0.09 0.09 88 1010.2